Wind_Speed
48 48 49 50 51 52 52 53 53 52 53 53 53 54 54 55 55 55 55 55 55 55 55 55 55 55 56 57 57 58 58 57 57 57 58 59 60 61 61 62 63 63 63
46 47 48 49 51 51 52 53 53 52 53 53 53 54 55 55 54 54 55 55 56 56 55 56 56 56 57 57 57 58 58 58 58 57 58 59 60 60 61 61 61 62 62
45 46 47 48 49 49 50 51 51 51 52 52 52 53 53 53 54 54 54 54 54 55 56 56 56 56 56 57 57 57 58 58 59 58 58 58 59 59 59 60 60 61 61
44 45 46 45 46 47 48 50 50 50 50 51 52 52 52 52 52 53 53 54 54 53 54 54 54 54 54 55 56 57 58 58 58 58 58 58 58 58 58 58 58 58 59
43 44 45 45 45 45 46 48 49 49 49 50 50 50 50 49 49 50 51 52 52 52 52 52 52 52 52 51 53 54 55 56 56 57 56 56 56 55 56 56 56 56 57
43 43 43 44 44 44 45 46 47 47 48 48 48 48 48 47 48 49 49 50 50 50 50 50 51 51 50 50 50 51 52 53 53 54 54 54 53 54 54 54 55 55 55
42 42 42 42 43 43 43 44 44 44 46 46 46 46 46 47 47 47 48 48 48 48 49 49 49 49 49 49 49 49 50 50 50 51 51 51 52 52 52 52 53 53 54
41 41 42 41 41 41 42 42 43 43 44 45 45 45 46 46 46 46 47 47 48 48 48 48 48 49 48 48 48 48 48 48 48 49 49 49 49 49 49 49 50 51 52
40 41 42 42 42 42 43 43 43 43 43 44 44 45 45 45 45 45 46 46 46 47 47 46 46 46 45 45 46 46 46 46 46 47 48 48 48 48 48 48 48 48 48
39 40 41 41 41 42 42 42 42 42 42 42 43 43 44 43 44 44 44 44 44 44 44 45 45 45 45 45 45 45 45 45 46 46 46 46 46 46 46 46 47 46 46
39 39 39 39 39 40 41 41 41 41 41 41 41 42 42 42 43 43 42 42 42 42 42 43 44 44 45 44 44 44 44 44 44 44 44 44 44 44 44 45 44 44 44
39 39 38 38 38 38 38 39 40 40 41 40 40 40 41 41 42 42 41 41 41 41 41 41 41 42 43 42 43 43 43 43 43 42 42 42 42 43 43 43 43 43 43
37 36 37 37 37 37 37 37 38 39 39 39 39 38 39 40 41 41 41 40 39 39 39 39 40 39 40 40 40 41 41 41 41 41 41 41 42 42 43 43 42 42 43
35 35 35 35 35 36 37 36 37 37 38 38 38 38 38 39 39 40 41 40 40 39 39 39 40 39 39 39 40 40 39 39 39 39 39 40 41 41 42 42 42 42 42
33 33 34 34 35 35 36 37 37 37 37 36 37 38 38 39 39 40 40 40 40 40 40 39 38 38 38 38 38 39 39 39 39 39 39 39 40 40 41 40 40 40 40
32 33 33 34 35 35 36 36 37 37 37 36 37 37 37 38 38 38 39 39 39 39 39 39 38 38 38 37 37 37 37 38 38 38 38 38 39 39 39 39 39 39 39
32 33 33 33 34 35 35 36 35 36 37 37 37 37 37 37 37 37 37 38 38 38 38 39 39 38 38 37 37 37 37 38 38 38 38 38 38 38 37 37 38 38 38
32 32 33 33 33 34 35 35 35 35 35 36 37 36 36 36 36 37 38 38 38 37 38 38 38 38 37 37 37 37 37 37 37 37 37 37 37 37 37 37 37 37 37
32 32 33 33 33 33 34 34 34 33 33 34 35 35 36 36 36 36 37 37 37 37 37 37 38 38 38 38 38 37 37 37 37 37 37 37 36 36 37 37 37 37 37
32 32 32 32 32 32 32 32 32 32 32 32 33 34 34 34 35 35 35 35 35 36 36 37 37 38 38 37 37 37 37 37 36 36 36 36 37 37 37 37 37 37 36
31 31 31 31 31 31 31 31 31 31 31 30 31 31 32 33 33 34 34 34 34 35 36 36 36 36 36 37 37 36 36 36 36 36 36 36 36 36 36 36 36 36 35
31 31 31 31 30 30 30 30 30 30 30 30 30 31 32 32 33 33 33 33 33 33 34 34 34 35 35 35 35 35 35 36 36 36 36 35 35 35 35 35 35 35 35
31 31 31 31 30 30 30 30 30 31 31 31 31 31 31 32 32 33 33 33 33 33 33 33 33 33 33 34 34 35 35 36 36 35 35 35 34 34 34 34 34 35 35
30 31 31 31 30 30 30 30 30 30 30 31 31 31 31 32 32 32 32 32 33 33 33 33 33 33 34 34 34 34 34 34 34 34 34 34 34 34 34 34 34 34 33
29 30 30 30 30 30 30 30 30 30 30 30 31 32 32 32 32 32 32 32 33 33 33 33 33 34 34 34 34 34 33 34 34 33 33 33 33 33 33 33 33 33 33
29 29 29 29 29 30 30 30 31 31 32 32 32 33 33 33 32 32 33 33 33 33 33 33 33 34 34 34 34 33 33 33 33 33 34 34 33 33 32 32 32 32 33
Wind_Direction
257 257 257 257 258 258 258 258 259 259 260 261 261 261 261 262 263 263 264 264 265 265 266 265 265 265 265 264 265 265 265 265 265 265 266 266 267 267 268 268 268 268 268
259 258 259 258 259 259 259 259 259 259 259 259 260 261 261 261 262 263 264 264 265 265 265 265 265 266 265 265 266 265 265 265 265 266 267 268 268 269 269 269 268 268 268
262 261 261 261 260 260 260 260 260 259 259 259 260 261 261 261 262 263 263 264 265 265 266 266 266 267 267 267 266 266 266 266 266 266 267 268 269 269 269 269 269 269 269
262 262 262 262 262 261 261 260 260 259 259 259 259 261 261 262 262 263 262 263 264 266 266 266 266 267 267 268 268 266 266 267 267 268 268 269 269 269 269 269 269 269 270
263 263 263 264 263 263 262 261 260 259 259 259 260 261 262 262 262 262 263 263 264 265 265 264 265 267 267 268 268 267 267 268 268 269 270 269 269 269 269 270 270 270 270
264 264 264 264 264 263 263 262 261 260 260 260 261 261 261 261 261 261 262 263 264 264 263 264 265 266 266 267 268 267 267 268 268 269 269 269 269 269 269 270 271 271 271
265 265 265 264 263 263 263 263 262 262 261 261 261 261 261 261 260 260 261 262 263 263 263 264 265 265 266 266 266 267 268 269 270 270 271 271 270 270 270 271 271 273 274
266 266 266 266 265 263 263 263 263 263 262 261 261 260 261 261 260 260 261 261 261 262 262 263 264 265 266 266 267 268 269 270 271 271 271 271 271 270 271 272 273 274 274
267 267 267 267 266 265 264 264 264 263 262 261 261 260 260 261 262 262 261 261 262 263 263 263 264 266 266 266 267 268 269 270 271 272 272 271 271 271 271 272 274 275 275
268 268 267 267 267 265 265 264 263 263 262 262 261 260 260 261 262 262 262 263 263 263 264 265 265 265 265 266 267 268 269 270 271 271 271 271 271 271 272 273 275 275 275
269 269 267 267 266 265 265 264 263 262 262 262 262 260 260 261 262 262 262 263 264 264 265 265 266 265 266 267 268 268 269 270 270 270 270 270 270 271 273 274 275 275 275
268 268 267 266 265 264 263 262 261 260 260 261 261 261 260 260 261 262 262 263 264 265 265 266 266 266 267 268 269 269 269 270 269 270 270 270 271 272 272 274 275 275 275
267 266 265 264 263 263 263 262 261 261 260 261 261 262 261 260 261 261 262 263 263 264 265 266 267 268 268 269 269 269 270 270 270 270 270 270 271 272 273 274 275 276 276
268 267 265 264 264 264 264 264 263 263 262 262 262 262 262 261 260 261 262 263 264 264 266 267 268 268 269 269 270 269 270 270 270 270 270 271 272 273 273 274 275 276 277
271 269 267 266 265 264 263 263 264 264 264 263 263 263 262 262 262 262 262 263 264 264 265 266 267 268 269 269 270 270 270 270 270 270 271 272 273 274 274 274 275 276 277
273 271 269 267 267 266 265 265 265 264 263 263 264 264 264 263 263 263 263 264 263 264 265 266 267 268 268 269 269 269 270 270 271 271 271 273 274 274 275 274 274 275 277
274 272 270 269 268 267 267 266 265 265 265 264 264 264 264 264 263 263 263 263 264 264 265 266 267 268 268 268 269 269 270 270 271 272 272 273 274 274 274 273 274 275 277
276 274 272 271 270 268 267 267 266 265 264 264 264 264 265 265 264 263 264 264 265 265 266 266 267 268 269 269 269 270 270 270 271 272 274 274 274 274 273 273 274 275 276
276 275 274 273 271 269 268 268 267 266 265 265 264 264 264 264 263 264 265 265 265 266 265 265 266 267 268 269 269 269 270 270 271 272 274 274 274 274 273 274 274 275 276
277 276 275 273 272 271 269 268 267 266 266 266 265 264 264 264 263 263 265 266 265 266 266 266 266 266 267 267 268 269 269 269 271 272 273 274 274 273 273 274 274 275 276
277 276 276 275 273 271 269 269 268 267 267 266 265 264 264 265 265 264 265 264 265 266 266 266 266 266 266 267 267 268 268 269 270 271 273 273 273 273 273 273 274 274 275
278 277 276 275 274 271 269 267 267 266 266 265 265 265 266 266 266 266 266 265 266 266 265 265 265 265 265 266 267 267 268 269 270 271 272 273 273 273 273 273 274 274 275
278 277 276 275 273 271 269 268 266 265 265 265 266 267 267 267 266 266 265 264 264 264 264 265 265 265 266 267 267 268 269 269 270 270 271 272 272 273 273 273 274 275 275
280 278 276 274 272 271 269 267 266 266 266 266 267 267 268 268 267 266 265 263 263 263 264 264 265 266 268 269 269 269 269 269 270 271 271 271 272 273 273 273 273 274 276
281 280 278 274 272 270 269 267 266 266 267 268 269 269 268 267 267 266 265 263 262 264 265 266 266 267 268 269 269 269 269 269 270 271 272 272 272 273 273 273 273 275 275
282 281 279 276 274 271 268 267 267 268 269 269 270 270 269 267 266 265 264 264 263 265 266 267 268 268 269 269 269 269 269 269 269 270 271 271 271 272 272 272 274 275 275
Height
5561 5562 5564 5566 5567 5569 5570 5571 5573 5574 5575 5577 5578 5579 5580 5581 5582 5583 5584 5585 5585 5586 5587 5588 5589 5590 5591 5591 5592 5593 5594 5595 5597 5600 5599 5599 5600 5601 5602 5602 5603 5604 5605
5548 5549 5551 5552 5553 5554 5556 5557 5558 5559 5561 5562 5563 5564 5565 5566 5567 5568 5569 5570 5571 5571 5572 5573 5574 5575 5575 5576 5576 5577 5578 5579 5580 5583 5583 5583 5583 5583 5584 5584 5585 5586 5587
5535 5536 5537 5538 5539 5540 5541 5542 5543 5545 5546 5547 5549 5550 5551 5552 5553 5554 5554 5555 5556 5557 5558 5558 5559 5560 5560 5560 5561 5561 5562 5563 5564 5565 5567 5566 5566 5566 5566 5567 5567 5568 5568
5522 5523 5524 5524 5525 5526 5527 5528 5529 5530 5532 5533 5534 5536 5537 5537 5538 5539 5540 5541 5542 5542 5543 5544 5545 5545 5546 5545 5545 5546 5547 5547 5548 5549 5550 5550 5550 5550 5549 5550 5550 5550 5551
5509 5510 5511 5511 5512 5512 5513 5514 5515 5516 5518 5519 5520 5521 5522 5523 5524 5525 5526 5527 5527 5528 5529 5530 5530 5531 5531 5531 5531 5531 5532 5532 5533 5533 5534 5534 5534 5534 5534 5533 5534 5534 5535
5497 5498 5498 5498 5499 5499 5500 5500 5501 5502 5504 5505 5506 5508 5509 5510 5511 5511 5512 5513 5514 5514 5515 5516 5517 5517 5517 5517 5517 5517 5517 5517 5518 5518 5518 5519 5519 5519 5518 5518 5518 5519 5520
5484 5485 5485 5486 5486 5486 5487 5487 5488 5489 5490 5492 5493 5494 5495 5496 5497 5497 5498 5499 5500 5501 5502 5503 5504 5504 5504 5504 5504 5503 5503 5503 5503 5503 5504 5504 5504 5504 5504 5504 5503 5503 5503
5472 5472 5472 5473 5473 5474 5474 5475 5476 5477 5477 5479 5480 5481 5482 5483 5483 5484 5485 5485 5487 5488 5489 5490 5490 5491 5491 5491 5490 5490 5490 5490 5490 5489 5490 5490 5490 5489 5489 5489 5488 5488 5488
5459 5460 5460 5460 5461 5461 5461 5462 5463 5464 5465 5466 5467 5468 5469 5470 5470 5471 5471 5472 5473 5475 5476 5476 5477 5477 5478 5478 5477 5477 5478 5477 5476 5475 5476 5476 5475 5475 5475 5475 5475 5474 5474
5447 5447 5447 5447 5448 5448 5449 5449 5450 5451 5452 5453 5454 5455 5456 5457 5457 5458 5459 5460 5461 5462 5463 5463 5464 5464 5464 5464 5464 5464 5465 5464 5463 5463 5463 5462 5462 5462 5462 5461 5461 5460 5460
5435 5435 5435 5435 5435 5436 5436 5437 5437 5439 5440 5441 5442 5443 5443 5444 5445 5445 5446 5447 5448 5449 5450 5451 5451 5451 5451 5451 5451 5452 5452 5451 5451 5450 5450 5450 5449 5449 5449 5448 5448 5447 5447
5423 5423 5423 5423 5423 5423 5424 5424 5425 5426 5427 5428 5429 5430 5431 5432 5432 5433 5434 5435 5436 5437 5438 5438 5439 5439 5439 5439 5439 5439 5439 5438 5438 5438 5438 5438 5438 5437 5437 5436 5435 5435 5434
5412 5411 5411 5411 5411 5412 5412 5413 5413 5414 5415 5416 5417 5418 5419 5420 5420 5421 5422 5423 5424 5425 5426 5426 5426 5427 5427 5427 5426 5426 5426 5426 5426 5426 5426 5426 5426 5425 5425 5424 5423 5423 5422
5400 5400 5400 5400 5400 5400 5401 5401 5402 5403 5403 5404 5405 5406 5407 5408 5408 5409 5410 5411 5412 5413 5414 5414 5414 5414 5415 5415 5415 5415 5415 5414 5414 5414 5414 5414 5414 5413 5413 5412 5412 5411 5411
5389 5389 5389 5389 5389 5389 5389 5390 5391 5391 5392 5393 5393 5394 5395 5396 5396 5397 5398 5399 5400 5401 5401 5402 5402 5403 5403 5403 5403 5403 5403 5403 5403 5403 5402 5402 5402 5402 5401 5400 5400 5399 5399
5379 5378 5378 5378 5378 5378 5378 5379 5379 5380 5380 5381 5381 5382 5383 5384 5384 5385 5385 5387 5387 5388 5389 5390 5390 5391 5391 5391 5391 5391 5391 5391 5391 5391 5391 5390 5390 5390 5389 5389 5388 5388 5387
5368 5367 5367 5367 5367 5366 5366 5367 5368 5368 5368 5369 5370 5370 5371 5372 5372 5373 5373 5374 5375 5376 5377 5378 5378 5379 5379 5379 5380 5380 5380 5380 5379 5379 5379 5379 5378 5378 5378 5377 5377 5377 5376
5357 5356 5356 5355 5355 5355 5355 5355 5356 5357 5357 5357 5358 5358 5359 5360 5360 5361 5361 5362 5363 5364 5365 5366 5366 5367 5367 5368 5368 5368 5368 5368 5368 5368 5368 5367 5367 5367 5366 5366 5366 5365 5365
5346 5345 5345 5344 5344 5344 5344 5344 5344 5345 5345 5346 5346 5347 5347 5348 5349 5349 5349 5350 5351 5352 5353 5354 5354 5355 5355 5356 5356 5356 5356 5356 5357 5357 5356 5356 5356 5356 5355 5355 5355 5354 5354
5335 5334 5334 5333 5333 5333 5333 5333 5333 5333 5334 5334 5335 5336 5336 5337 5337 5338 5338 5339 5339 5340 5341 5341 5342 5343 5343 5344 5344 5344 5345 5345 5345 5345 5345 5345 5345 5344 5344 5344 5344 5343 5343
5325 5324 5323 5322 5322 5322 5322 5322 5322 5323 5323 5324 5324 5324 5325 5325 5326 5326 5327 5327 5327 5328 5329 5330 5330 5331 5331 5332 5333 5333 5334 5334 5334 5334 5334 5334 5334 5334 5333 5333 5333 5333 5332
5314 5313 5313 5312 5311 5311 5311 5312 5312 5312 5313 5313 5314 5314 5314 5314 5314 5315 5315 5316 5316 5316 5317 5318 5319 5319 5320 5321 5322 5322 5322 5323 5323 5323 5323 5323 5323 5323 5323 5322 5322 5322 5322
5303 5302 5301 5301 5301 5301 5301 5301 5301 5302 5302 5303 5303 5303 5303 5303 5303 5303 5304 5304 5305 5306 5307 5307 5308 5308 5309 5310 5310 5311 5311 5311 5312 5312 5312 5312 5312 5312 5312 5312 5312 5311 5311
5292 5291 5290 5290 5290 5290 5290 5290 5291 5291 5292 5292 5292 5292 5292 5292 5292 5292 5293 5293 5294 5295 5295 5296 5297 5297 5298 5298 5299 5299 5300 5300 5300 5301 5301 5301 5301 5301 5301 5301 5301 5301 5300
5281 5280 5279 5279 5279 5279 5279 5279 5280 5280 5281 5281 5281 5281 5281 5281 5281 5281 5282 5282 5283 5284 5284 5285 5285 5286 5286 5287 5287 5288 5288 5289 5289 5290 5290 5290 5291 5291 5291 5291 5291 5291 5290
5271 5270 5269 5269 5268 5268 5268 5269 5269 5269 5269 5270 5270 5270 5270 5270 5270 5270 5271 5271 5272 5272 5273 5273 5274 5274 5275 5275 5276 5276 5277 5278 5278 5279 5279 5280 5280 5280 5281 5281 5281 5280 5280